Regional Weather Roundup
Issued by NWS Midland/Odessa, TX

Skip options and go directly to product.
Home | Oldest Version | Next Version | Current Version | All | Text Only | Save Text | Print | Product List | Glossary On

Skip product version selection by date and time.   
597
ASUS44 KMAF 260701
RWRMAF
MIDLAND AREA WEATHER ROUNDUP
NATIONAL WEATHER SERVICE MIDLAND TX
200 AM CDT SUN APR 26 2015

...IN SOUTHWEST TEXAS AND SOUTHEAST NEW MEXICO...

CITY           SKY/WX    TMP DP  RH WIND       PRES   REMARKS
ALPINE         CLEAR     51  32  47 S5        29.91S
ANDREWS        FAIR      56  27  31 SW7       29.75F
ARTESIA        PTCLDY    54  23  30 S8        29.76F
BIG SPRING     CLEAR     59  28  31 SE7       29.76S
CARLSBAD       PTCLDY    55  24  30 NW8       29.74F
DRYDEN           N/A     65  51  60 N6        29.71F
FORT STOCKTON  CLEAR     61  26  26 S10       29.77F
GUAD PASS      NOT AVBL
HOBBS          FAIR      50  27  40 SW8       29.77F
MARFA          CLEAR     43  34  70 NW6       29.90S WCI  39
MIDLAND AIRPK  CLEAR     62  38  40 CALM      29.75S
MIDLAND INTL   CLEAR     61  38  42 CALM        N/A
ODESSA         CLEAR     61  33  35 S3        29.76S
PECOS          CLEAR     49  23  35 SE3       29.76R
PRESIDIO       FAIR      65  26  22 N9        29.79R
SEMINOLE       CLEAR     53  28  37 W8        29.76F
SNYDER         CLEAR     60  37  42 S6        29.73F
WINK           CLEAR     50  23  34 CALM      29.74S
$$
...OTHER STATIONS IN TEXAS...

CITY           SKY/WX    TMP DP  RH WIND       PRES   REMARKS
ABILENE        CLEAR     57  43  59 S7        29.70F
AMARILLO       PTCLDY    52  32  46 S9        29.71S
AUSTIN         CLOUDY    71  70  96 S13       29.71F
BROWNSVILLE    CLOUDY    79  77  94 S7        29.71F FOG
CORPUS CHRISTI CLOUDY    75  74  96 S8        29.71F FOG
DALLAS FTW     CLEAR     64  54  69 S7        29.66F
DEL RIO        CLEAR     70  60  70 E6        29.69F
EL PASO        PTCLDY    67  21  17 SW20      29.80F
HOUSTON INT    PTCLDY    69  68  96 S3        29.72F
LUBBOCK        PTCLDY    56  28  34 W8        29.72F
SAN ANGELO     CLEAR     57  41  55 SW5       29.72F
SAN ANTONIO    MOCLDY    74  70  87 S8        29.74S
WACO           CLEAR     67  60  78 S8        29.69F
WICHITA FALLS  NOT AVBL
$$
...OTHER LOCATIONS IN NEW MEXICO...

CITY           SKY/WX    TMP DP  RH WIND       PRES   REMARKS
ALAMAGORDO     PTCLDY    55  23  28 S10       29.81S
ALBUQUERQUE    LGT RAIN  59  28  30 SW9       29.81R
CANNON AFB     NOT AVBL
CLOVIS         CLEAR     50  28  43 W10       29.74F
HOLLOMAN AFB   NOT AVBL
ROSWELL        CLEAR     52  28  39 VRB6      29.73F
RUIDOSO        CLEAR     54  18  24 SW21      29.87F
SANTA FE       MOCLDY    50  26  39 NE8       29.81S
TRUTH OR CONSE MOCLDY    61  24  24 S9        29.78S
TUCUMCARI      CLEAR     50  26  39 SW3       29.70S
$$

USA.gov is the U.S. government's official web portal to all federal, state and local government web resources and services.